www.pogodaiklimat.ru

Погода и климат >> Архив погоды >> Турция >> Балыкесир


ПОГОДА в Балыкесире

  • Прогноз погоды в Балыкесире
  • Монитор погоды в Балыкесире

АРХИВ ПОГОДЫ в Балыкесире

Время (UTC), дата Ветер
(напр.,м/с)
 
Видим.   Явления Облачность Т
(С)
Тd
(С)
f
(%)
Тe
(С)
Тes
(С)
Комфортность P
(гПа)
Po
(гПа)
Тmin
(С)
Tmax
(С)
R
(мм)
R24
(мм)
S
(см)
03 17.03 штиль 0 6000 м дымка 5/0
[Ci fib]
+2.7 +2.7 100 +1 +1 1018.5 1006.0
06 17.03 штиль 0 4000 м дымка 3/0
[Ci fib]
+6.8 +5.6 92 +6 +9 1020.0 1007.5 +2.5
09 17.03 штиль 0 10 км 3/0
[Ac trans]
+15.2 +6.0 54 +15 +28 опасность
простуды
1019.7 1007.3
12 17.03 ЮВ 1
{5}
10 км 1/1 1050 м
[Cu hum]
+20.5 +6.9 41 +23 +33 комфорт 1017.9 1005.6
15 17.03 штиль 0
{6}
10 км 3/3 1050 м
[Cu hum]
+21.7 +6.2 37 +22 +23 комфорт 1017.2 1004.9
18 17.03 штиль 0
{6}
10 км ясно +14.2 +6.8 61 +14 +14 1018.2 1005.8 +22.1
21 17.03 штиль 0 10 км ясно +9.0 +7.9 93 +8 +8 1018.5 1006.2
00 18.03 штиль 0 10 км ясно +6.7 +5.9 95 +6 +6 1018.4 1006.2
03 18.03 штиль 0 2000 м дымка ясно +5.0 +4.8 99 +4 +4 1018.1 1005.9
06 18.03 штиль 0
{2}
6000 м дымка ясно +8.8 +8.8 100 +8 +12 1019.2 1006.9 +3.6
09 18.03 штиль 0
{2}
10 км ясно +16.2 +9.3 64 +16 +32 опасность
простуды
1018.5 1006.2
12 18.03 штиль 0
{2}
10 км ясно +23.0 +7.6 37 +24 +38 комфорт 1016.5 1004.3
15 18.03 ЮЗ 2
{8}
10 км ясно +23.0 +5.0 31 +23 +24 комфорт 1015.6 1003.4
18 18.03 ЮЗ 1
{8}
10 км ясно +17.1 +8.5 57 +18 +18 1017.0 1004.8 +23.9
21 18.03 штиль 0
{5}
10 км ясно +11.0 +8.8 86 +10 +10 1017.8 1005.6
00 19.03 штиль 0
{5}
10 км ясно +8.0 +7.6 97 +7 +7 1017.8 1005.7
03 19.03 штиль 0 6000 м дымка ясно +5.1 +5.1 100 +4 +4 1017.7 1005.5
06 19.03 штиль 0 4000 м дымка 4/0
[Ci fib]
+8.3 +8.1 99 +7 +11 1018.9 1006.6 +4.2
09 19.03 штиль 0 10 км 5/0
[Ci fib]
+16.7 +9.4 62 +17 +31 опасность
простуды
1018.1 1005.9
12 19.03 З 2
{5}
10 км 5/0
[Ci fib]
+20.8 +8.9 46 +23 +32 комфорт 1016.4 1004.2
15 19.03 З 4
{8}
10 км 5/0
[Ci fib]
+20.5 +10.0 51 +22 +23 комфорт 1016.1 1003.9
18 19.03 штиль 0
{8}
10 км ясно +15.2 +9.1 67 +15 +15 1018.0 1005.7 +22.3
21 19.03 штиль 0 10 км ясно +10.7 +8.8 88 +10 +10 1019.4 1007.2
00 20.03 штиль 0 10 км ясно +8.3 +7.7 96 +7 +7 1019.9 1007.7
03 20.03 штиль 0 6000 м дымка ясно +6.6 +6.2 97 +5 +5 1020.0 1007.7
06 20.03 штиль 0
{1}
4000 м дымка ясно +8.5 +7.9 96 +8 +12 1021.2 1008.9 +5.0
09 20.03 СВ 4
{6}
10 км 4/0
[Ac trans]
+16.4 +10.3 67 +16 +23 1021.1 1008.8
12 20.03 С 8
{12}
10 км 5/1 1050 м
[Cu hum Ci fib]
+15.9 +9.5 66 +14 +16 1020.4 1008.1
15 20.03 С 8
{12}
10 км 6/3 1050 м
[Cu hum Ci fib]
+12.4 +7.9 74 +9 +10 1021.7 1009.2
18 20.03 С 8
{12}
10 км 8/5 600 м
[Cu hum Ci fib]
+9.4 +6.0 79 +5 +5 1024.0 1011.5 +17.5
21 20.03 С 3
{11}
10 км 8/5 570 м
[Cu hum Ci fib]
+8.2 +4.9 80 +6 +6 1025.5 1013.1
00 21.03 С 5
{11}
10 км 9/5 570 м
[Cu hum Ci fib]
+7.1 +3.7 79 +3 +3 1026.1 1013.7
03 21.03 С 5
{10}
10 км 8/5 570 м
[Cu hum Ci fib]
+6.1 +3.7 85 +2 +2 1026.6 1014.1
06 21.03 С 7
{11}
10 км 6/6 570 м
[Cu med, cong]
+8.3 +4.6 77 +4 +4 1028.2 1015.6 +5.5
09 21.03 С 8
{13}
10 км 3/3 1050 м
[Cu hum]
+12.0 +4.5 60 +9 +11 1028.0 1015.5
12 21.03 С 11
{15}
10 км 3/3 1050 м
[Cu hum]
+13.9 +4.1 52 +11 +11 1026.6 1014.1
15 21.03 С 8
{15}
10 км 3/3 1050 м
[Cu hum]
+12.1 +5.1 62 +9 +9 1026.6 1014.1
18 21.03 С 8
{15}
10 км 3/3 1050 м
[Cu hum]
+8.9 +4.6 74 +5 +5 1028.5 1015.9 +14.2
21 21.03 С 5
{12}
10 км 4/4 450 м
[Cu hum]
+7.6 +4.5 81 +4 +4 1028.7 1016.2
00 22.03 С 5
{12}
10 км 1/1 1050 м
[Cu hum]
+7.0 +2.9 75 +3 +3 1028.5 1016.0
03 22.03 штиль 0
{8}
10 км 1/1 1050 м
[Cu hum]
+4.8 +0.6 74 +4 +4 1028.4 1015.8
06 22.03 С 7
{11}
10 км 3/3 1050 м
[Cu hum]
+7.4 +3.1 74 +3 +3 1029.2 1016.6 +3.6
09 22.03 С 8
{12}
10 км ясно +10.9 +2.1 55 +8 +10 1027.8 1015.3
12 22.03 С 10
{13}
10 км ясно +13.2 +1.5 45 +10 +11 1025.5 1013.0
15 22.03 С 9
{13}
10 км ясно +12.6 +0.6 44 +10 +10 1023.9 1011.4
18 22.03 С 7
{13}
10 км ясно +9.3 -0.9 49 +6 +6 1024.8 1012.3 +13.7
21 22.03 С 4
{11}
10 км ясно +7.1 -0.7 58 +4 +4 1024.6 1012.1
00 23.03 штиль 0
{11}
10 км ясно +2.6 -1.2 76 +2 +2 1023.9 1011.3
03 23.03 штиль 0
{2}
10 км ясно -0.2 -1.5 91 -1 -1 1023.0 1010.4
06 23.03 штиль 0
{2}
10 км ясно +5.3 +1.9 79 +4 +9 1023.3 1010.7 -1.1
09 23.03 С 9
{12}
10 км ясно +14.0 +1.3 42 +12 +13 1021.6 1009.2
12 23.03 С 12
{16}
10 км ясно +16.3 +3.6 43 +14 +14 1019.9 1007.5
15 23.03 СВ 11
{17}
10 км ясно +15.0 +2.8 44 +13 +13 1019.2 1006.7
18 23.03 С 6
{17}
10 км 3/0
[Ac trans]
+9.5 -0.6 49 +6 +6 1021.1 1008.6 +16.9
21 23.03 С 4
{9}
10 км ясно +7.9 -4.0 43 +5 +5 1021.7 1009.3
00 24.03 С 4
{9}
10 км ясно +4.9 -2.7 58 +1 +1 1021.6 1009.2

 

Местоположение метеостанции Балыкесир (Турция): широта 39.62 долгота 27.92 высота над уровнем моря 102 м.

В архиве по умолчанию представлена погода в Балыкесире за последнюю неделю. Архивные данные за месяц целиком и за предыдущие месяцы, начиная с января 2011 года, Вы можете получить, выбрав интересующий диапазон дат из раскрывающегося списка и нажав кнопку "Ввод!".


*Определитесь, кто Вы:
робот инопланетянин человек

Внимание! Время в таблицах - всемирное. Для получения местного времени необходимо прибавить поправку, которая равна 2 ч.

Смотрите также архив погоды в соседних городах и на ближайших метеорологических станциях:

Погода в Бандырм (Турция) (78 км)
Погода в Акхисаре (Турция) (78 км)
Погода в Дикили (Турция) (110 км)
Погода в Айвалыке (Турция) (111 км)
Погода в Бурсе (Турция) (116 км)
Погода в Манисе (Турция) (119 км)
Погода в Митилини (Греция) (129 км)
Погода в Чанаккале (Турция) (142 км)
Погода в Измир / Сигли (Турция) (147 км)
Погода в Измире (Турция) (147 км)

Пояснения к столбцам:

Ветер - указаны скорость ветра в м/с - средняя за 10 мин, порывы в срок и между сроками (в фигурных скобках) и направление, откуда дует ветер: С - северный, СВ - северо-восточный, В - восточный, ЮВ - юго-восточный, Ю - южный, ЮЗ - юго-западный, З - западный, СЗ - северо-западный.
Видимость - горизонтальная дальность видимости в метрах или километрах. При видимости от 1 до 10 км при отсутствии осадков обычно наблюдается дымка, при ухудшении видимости до 1 км и менее - туман. В сухую погоду видимость может ухудшаться дымом, пылью или мглою.
Явления - указаны атмосферные явления, наблюдавшиеся в срок или в последний час перед сроком; фигурными скобками обозначены явления, наблюдавшиеся между сроками (за 1-3 часа до срока); квадратными скобками обозначены град или гололедные отложения с указанием их диаметра в мм.
Облачность - указаны через наклонную черту общая и нижняя облачность в баллах и высота нижней границы облаков в метрах; квадратными скобками обозначены формы облаков: Ci - перистые, Cs - перисто-слоистые, Cc - перисто-кучевые, Ac - высококучевые, As - высокослоистые, Sc - слоисто-кучевые, Ns - слоисто-дождевые, Cu - кучевые, Cb - кучево-дождевые. Подробнее классификацию облаков см. в Атласе облаков (PDF).
T - Температура воздуха - температура, измеренная на высоте 2 м над землей.
Td - Температура точки росы - температура, при понижении до которой содержащийся в воздухе водяной пар достигнет насыщения.
f - Относительная влажность воздуха - влажноcть воздуха, измеренная на высоте 2 м над землей.
Te - Эффективная температура - температура, которую ощущает одетый по сезону человек в тени. Характеристика душности погоды. При расчете учитывается влияние влажности воздуха и скорости ветра на теплоощущения человека.
Tes - Эффективная температура на солнце - температура, которую ощущает человек, с поправкой на солнечный нагрев. Характеристика знойности погоды. Зависит от высоты солнца над горизонтом, облачности и скорости ветра. Ночью, в пасмурную погоду, а также при ветре 12 м/с и более поправка равна нулю.
P - Атмосферное давление - приведенное к уровню моря атмосферное давление.
Po - Атмосферное давление - измеренное на уровне метеостанции атмосферное давление.
Tmin - Минимальная температура - минимум температуры воздуха на высоте 2 м над землей.
Tmax - Максимальная температура - максимум температуры воздуха на высоте 2 м над землей.
R - Количество осадков - Количество выпавших осадков за период времени, мм. При наведении курсора мыши на число - период времени, за который выпало указанное количество осадков.
R24 - Количество осадков - Количество выпавших осадков за 24 часа, мм.
S - Снежный покров - Высота снежного покрова, см. При наведении курсора мыши на число - состояние снежного покрова и степень покрытия местности в баллах.